Weather in Nikolske

Ukraine / Donetsk Region     47°11′58″N   37°19′07″E
temp.,
°C
wind,
m/s
gust,
m/s
humid.,
%
clouds,
%
prec.,
mm/h
press.,
hPa
HPBL,
m
4 august, wed
wed400:00+20nw37809 0.0 1013135
03:00+20n388633 0.0 1014167
06:00+19nne3680100 0.0 1015132
09:00+25e1256100 0.0 1016455
12:00+30nnw44330 0.0 10162184
15:00+30nnw553014 0.0 10152495
18:00+29n5434100 0.0 10151533
21:00+23n48485 0.0 1016153
5 august, thu
thu500:00+21nne345054 0.0 101669
03:00+21nne3450100 0.0 101671
06:00+21nne36475 0.0 1016117
09:00+27ene45385 0.0 1016527
12:00+31ene442982 0.0 10151937
15:00+32ene33255 0.0 10132427
18:00+32ne232653 0.0 10122234
21:00+25n474235 0.0 101196
6 august, fri
fri600:00+26ne384197 0.0 1010202
03:00+24e485682 0.0 1009175
06:00+21e4108119 2.0 1009178
09:00+27ese67585 3.4 1009472
12:00+33ese79315 0.0 10071275
15:00+36ese711250 0.0 10052803
18:00+36ese5726100 0.0 10041536
21:00+31e71331100 0.0 1003379
7 august, sat
sat700:00+30ese8143774 0.0 1004521
03:00+28ese714390 0.0 1004440
06:00+26e51244100 0.0 1005409
09:00+30ese893483 0.0 1005936
12:00+33ese8930100 0.0 10051243
15:00+33se71030100 0.3 10051288
18:00+32ese692998 0.0 1006663
21:00+27ene333673 0.1 100642
8 august, sun
sun800:00+25n354194 0.1 100775
03:00+25nnw3343100 0.3 100752
06:00+23n4855100 0.0 1007149
09:00+28ne223796 0.1 1009401
12:00+31ssw4433100 0.0 1009912
15:00+29s4345100 0.4 1010445
18:00+26e3458100 0.2 1011135
21:00+26ene2355100 0.3 101162